Location: Lourdes
(43.1000°N, 0.0500°W)
Time: 04:08:36
(UTC+00:00)

Cosmos 1782 - Pass Details

Date: 30 November 2020
Orbit: 537 x 551 km, 82.5° (Epoch: 24 January)

Event Time Altitude Azimuth Distance (km) Brightness Sun altitude
Rises 17:59:48 0° 192° (SSW) 2,680 6.7 -16.6°
Reaches altitude 10° 18:01:57 10° 195° (SSW) 1,795 5.8 -17.0°
Maximum altitude 18:05:53 70° 279° (W) 580 3.0 -17.7°
Drops below altitude 10° 18:09:52 10° 4° (N) 1,819 5.3 -18.4°
Enters shadow 18:10:27 - 5° (N) 2,058 5.6 -18.5°
